Regional Weather Roundup
Issued by NWS Jackson, KY

Home | Current Version | Previous Version | Text Only | Print | Product List | Glossary On
Versions: 1 2 3 4 5 6 7 8 9 10 11 12 13 14 15 16 17 18 19 20 21 22 23 24 25 26 27 28
000
ASUS43 KJKL 202010
RWRJKL

EAST KENTUCKY HOURLY WEATHER ROUNDUP
NATIONAL WEATHER SERVICE JACKSON KY
300 PM EST FRI JAN 20 2017

NOTE: "FAIR" INDICATES FEW OR NO CLOUDS BELOW 12,000 FEET WITH
NO SIGNIFICANT WEATHER AND/OR OBSTRUCTIONS TO VISIBILITY.

* THESE REPORTS ARE NOT UNDER NWS QUALITY CONTROL AND MAY NOT
  REPORT WEATHER SUCH AS PRECIPITATION AND FOG.

KYZ079-080-083-085-087-088-110-112-115-119-120-202100
...EASTERN KENTUCKY...

CITY           SKY/WX    TMP DP  RH WIND       PRES   REMARKS
JACKSON        MOSUNNY   65  51  60 VRB5      29.75F
LONDON         PTSUNNY   65  49  56 SW14      29.76F
SOMERSET*      SUNNY     63  46  55 SW12G21   29.78S
MONTICELLO*    MOSUNNY   65  50  58 S8G22     29.77F
WILLIAMSBURG*  PTCLDY    66  48  52 S14       29.76F
MIDDLESBORO*   MOSUNNY   66  50  56 S7G17     29.77F
HARLAN APT*    MOCLDY    64  46  52 CALM      29.77F
PIKE CO APT*   PTSUNNY   65  51  59 SW3       29.76F
BIG SANDY APT* MOCLDY    64  51  63 SW9       29.75F
MOREHEAD APT*  MOCLDY    63  50  63 SW10      29.75F
ASHLAND*       CLOUDY    64  54  68 W7        29.71S
$$

KYZ035-036-041-042-044-050-067-078-099-202100
...CENTRAL KENTUCKY...

CITY           SKY/WX    TMP DP  RH WIND       PRES   REMARKS
MT STERLING*   MOSUNNY   63  50  63 W14G23    29.75S
FLEMING/MASON* MOSUNNY   62  52  71 SW10      29.74S
DANVILLE*      PTSUNNY   63  50  63 SW10G21   29.75S
LEXINGTON      MOSUNNY   63  50  62 W10G21    29.73F
FRANKFORT      PTSUNNY   62  49  62 SW15G22   29.71F
LOUISVILLE     CLOUDY    62  49  62 SW14      29.70F
LEBANON*       MOCLDY    61  50  67 S15G21    29.74S
GLASGOW*       CLOUDY    63  52  68 SW7       29.73F
BOWLING GREEN  CLOUDY    64  53  67 S9        29.72F
$$

KYZ091>093-OHZ055-061-077-WVZ005-015-034-035-042-202100
...SOUTHERN OHIO/WEST VIRGINIA...

CITY           SKY/WX    TMP DP  RH WIND       PRES   REMARKS
COVINGTON      MOSUNNY   59  51  75 SW13      29.69F
COLUMBUS       CLOUDY    61  49  64 W13G22    29.69R
DAYTON         PTSUNNY   56  48  74 SW17G25   29.69S
WILMINGTON     CLOUDY    58  51  78 SW14      29.69S
HUNTINGTON     CLOUDY    64  50  60 SW12      29.73S
CHARLESTON     PTSUNNY   63  50  62 SW10      29.74S
BECKLEY        MOSUNNY   61  46  57 SW12      29.78S
BLUEFIELD      MOSUNNY   58  45  62 SW15      29.81S
LOGAN CO APT*  MOCLDY    64  50  59 SW6G13    29.76S
$$

VAZ002-007-008-TNZ017-027-036-066-071-202100
...SOUTHWEST VIRGINIA/EAST TENNESSEE...

CITY           SKY/WX    TMP DP  RH WIND       PRES   REMARKS
WISE*          MOSUNNY   59  48  67 SW12      29.82S
JONESVILLE*      N/A     64  48  55 SW16G22   29.80F
ABINGDON*      MOSUNNY   62  54  76 W8        29.82F
BRISTOL        MOSUNNY   65  52  62 SW14G21   29.80F
MORRISTOWN*    CLOUDY    66  50  55 W10       29.78S
SEVIERVILLE*   PTCLDY    68  48  49 W7        29.78S
KNOXVILLE      PTSUNNY   68  52  56 SW14      29.77F
LAFOLLETTE*    MOCLDY    66  50  55 CALM      29.80F
OAK RIDGE      MOSUNNY   68  51  54 SW9G20    29.78F
CROSSVILLE     PTSUNNY   61  48  62 SW7       29.79F
NASHVILLE      PTSUNNY   69  52  54 S16G22    29.72F
$$

...KEY TO REMARKS...
VSB - VISIBILITY IN MILES
WCI - WIND CHILL INDEX
HX  - HEAT INDEX

$$




USA.gov is the U.S. government's official web portal to all federal, state and local government web resources and services.